Weather History for KCXY - November, 2012

Change the Weather History Date:

Saturday, November 17, 2012

  Actual Average Record
Temperature  
Mean Temperature 42 °F -  
Max Temperature 55 °F 50 °F 72 °F (1953)
Min Temperature 28 °F 33 °F 16 °F (1933)
Degree Days  
Heating Degree Days 24    
Moisture  
Dew Point 29 °F    
Average Humidity 71    
Maximum Humidity 89    
Minimum Humidity 38    
Precipitation  
Precipitation 0.00 in - - ()
Sea Level Pressure  
Sea Level Pressure 30.58 in    
Wind  
Wind Speed 2 mph (West)    
Max Wind Speed 6 mph    
Max Gust Speed -    
Visibility 10 miles    
Events      
Averages and records for this station are not official NWS values.
T = Trace of Precipitation, MM = Missing Value Source: NWS Daily Summary

Daily Weather History Graph

Daily Weather History Graph

Search for Another Location

Airport or City:

Trip Planner

Search our weather history database for the weather conditions in past years. The results will help you decide how hot, cold, wet, or windy it might be!

Date:

Astronomy

Nov. 17, 2012 Rise Set
Actual Time 6:55 AM EST 4:48 PM EST
Civil Twilight 6:26 AM EST 5:17 PM EST
Nautical Twilight 5:53 AM EST 5:50 PM EST
Astronomical Twilight 5:21 AM EST 6:23 PM EST
Moon 10:38 AM EST (11/17) 8:56 PM EST (11/17)
Length of Visible Light 10h 51m
Length of Day
9h 52m
Waxing Crescent, 20% of the Moon is Illuminated
Nov 17
Waxing Crescent
Nov 20
First Quarter
Nov 28
Full
Dec 6
Last Quarter
Dec 13
New

Hourly Weather History & Observations

Time (EST) Temp. Windchill Dew Point Humidity Pressure Visibility Wind Dir Wind Speed Gust Speed Precip Events Conditions
12:56 AM 30.9 °F - 26.1 °F 82% 30.49 in 10.0 mi Calm Calm - N/A   Clear
1:56 AM 30.0 °F - 26.1 °F 85% 30.50 in 10.0 mi Calm Calm - N/A   Clear
2:56 AM 30.9 °F - 26.1 °F 82% 30.51 in 10.0 mi Calm Calm - N/A   Clear
3:56 AM 30.0 °F 26.5 °F 26.1 °F 85% 30.52 in 10.0 mi WSW 3.5 mph - N/A   Clear
4:56 AM 28.9 °F 23.9 °F 26.1 °F 89% 30.55 in 10.0 mi WSW 4.6 mph - N/A   Clear
5:56 AM 28.9 °F 22.8 °F 26.1 °F 89% 30.56 in 10.0 mi WSW 5.8 mph - N/A   Clear
6:56 AM 28.0 °F 22.8 °F 25.0 °F 88% 30.58 in 10.0 mi WSW 4.6 mph - N/A   Clear
7:56 AM 32.0 °F 27.5 °F 28.0 °F 85% 30.61 in 10.0 mi WSW 4.6 mph - N/A   Clear
8:56 AM 41.0 °F - 32.0 °F 70% 30.63 in 10.0 mi Calm Calm - N/A   Clear
9:56 AM 45.0 °F 43.5 °F 28.9 °F 53% 30.63 in 10.0 mi NNW 3.5 mph - N/A   Clear
10:56 AM 48.0 °F - 28.9 °F 48% 30.63 in 10.0 mi Calm Calm - N/A   Clear
12:56 PM 52.0 °F - 28.9 °F 41% 30.59 in 10.0 mi Calm Calm - N/A   Clear
1:56 PM 54.0 °F - 28.9 °F 38% 30.58 in 10.0 mi NNW 3.5 mph - N/A   Clear
2:56 PM 55.0 °F - 30.0 °F 38% 30.58 in 10.0 mi Calm Calm - N/A   Clear
3:56 PM 54.0 °F - 30.0 °F 40% 30.58 in 10.0 mi North 4.6 mph - N/A   Clear
4:56 PM 46.9 °F - 32.0 °F 56% 30.59 in 10.0 mi Calm Calm - N/A   Clear
5:56 PM 41.0 °F 39.0 °F 32.0 °F 70% 30.61 in 10.0 mi SW 3.5 mph - N/A   Clear
6:56 PM 39.9 °F - 30.9 °F 70% 30.61 in 10.0 mi Calm Calm - N/A   Clear
7:56 PM 36.0 °F - 30.0 °F 79% 30.60 in 10.0 mi Calm Calm - N/A   Clear
8:56 PM 36.0 °F - 30.0 °F 79% 30.61 in 9.0 mi Calm Calm - N/A   Clear
9:56 PM 35.1 °F - 30.0 °F 82% 30.62 in 10.0 mi Calm Calm - N/A   Clear
10:56 PM 32.0 °F - 28.9 °F 88% 30.62 in 8.0 mi Calm Calm - N/A   Clear
11:56 PM 32.0 °F - 28.0 °F 85% 30.63 in 7.0 mi Calm Calm - N/A   Clear